Time,TemperatureF,DewpointF,PressureIn,WindDirection,WindDirectionDegrees,WindSpeedMPH,WindSpeedGustMPH,Humidity,HourlyPrecipIn,Conditions,Clouds,dailyrainin,SoftwareType,DateUTC
2013-12-22 00:01:00,34.1,33.1,30.01,ENE,68,0.0,0.0,96,0.00,,,0.00,Wunderground v.1.15,2013-12-22 05:01:00,
2013-12-22 00:02:00,34.1,33.1,30.01,ENE,68,0.0,0.0,96,0.00,,,0.00,Wunderground v.1.15,2013-12-22 05:02:00,
2013-12-22 00:04:00,34.1,33.1,30.01,ENE,68,0.0,0.0,96,0.00,,,0.00,Wunderground v.1.15,2013-12-22 05:04:00,
2013-12-22 00:09:00,34.0,33.0,30.00,ENE,68,0.0,0.0,96,0.00,,,0.00,Wunderground v.1.15,2013-12-22 05:09:00,
2013-12-22 00:10:00,34.0,33.0,30.00,ENE,68,0.0,0.0,96,0.00,,,0.00,Wunderground v.1.15,2013-12-22 05:10:00,
2013-12-22 00:13:00,34.1,33.1,30.00,ENE,68,0.0,0.0,96,0.00,,,0.00,Wunderground v.1.15,2013-12-22 05:13:00,
2013-12-22 00:18:00,34.2,33.2,30.00,ENE,68,0.0,0.0,96,0.00,,,0.00,Wunderground v.1.15,2013-12-22 05:18:00,
2013-12-22 00:24:00,34.4,33.4,29.99,ENE,68,0.0,0.0,96,0.00,,,0.00,Wunderground v.1.15,2013-12-22 05:24:00,
2013-12-22 00:29:00,34.4,33.4,29.99,ENE,68,0.0,0.0,96,0.00,,,0.00,Wunderground v.1.15,2013-12-22 05:29:00,
2013-12-22 00:34:00,34.4,33.4,29.99,ENE,68,0.0,0.0,96,0.00,,,0.00,Wunderground v.1.15,2013-12-22 05:34:00,
2013-12-22 00:39:00,34.5,33.5,29.99,ENE,68,0.0,0.0,96,0.00,,,0.00,Wunderground v.1.15,2013-12-22 05:39:00,
2013-12-22 00:44:00,34.6,33.6,29.99,ENE,68,0.0,0.0,96,0.00,,,0.00,Wunderground v.1.15,2013-12-22 05:44:00,
2013-12-22 00:49:00,34.8,33.8,29.99,ENE,68,0.0,0.0,96,0.00,,,0.00,Wunderground v.1.15,2013-12-22 05:49:00,
2013-12-22 00:55:00,34.7,33.7,29.99,ENE,68,0.0,0.0,96,0.00,,,0.00,Wunderground v.1.15,2013-12-22 05:55:00,
2013-12-22 01:00:00,34.8,33.8,29.99,ENE,68,0.0,0.0,96,0.00,,,0.00,Wunderground v.1.15,2013-12-22 06:00:00,
2013-12-22 01:06:00,34.8,33.8,29.99,ENE,68,0.0,0.0,96,0.00,,,0.00,Wunderground v.1.15,2013-12-22 06:06:00,
2013-12-22 01:11:00,34.9,33.9,29.98,ENE,68,0.0,0.0,96,0.00,,,0.00,Wunderground v.1.15,2013-12-22 06:11:00,
2013-12-22 01:16:00,35.0,34.0,29.98,ENE,68,0.0,0.0,96,0.00,,,0.00,Wunderground v.1.15,2013-12-22 06:16:00,
2013-12-22 01:21:00,35.0,34.0,29.98,ENE,68,0.0,0.0,96,0.00,,,0.00,Wunderground v.1.15,2013-12-22 06:21:00,
2013-12-22 01:26:00,35.1,34.1,29.98,ENE,68,0.0,0.0,96,0.00,,,0.00,Wunderground v.1.15,2013-12-22 06:26:00,
2013-12-22 01:31:00,35.1,34.1,29.98,ENE,68,0.0,0.0,96,0.00,,,0.00,Wunderground v.1.15,2013-12-22 06:31:00,
2013-12-22 01:37:00,35.1,34.1,29.98,ENE,68,0.0,0.0,96,0.00,,,0.00,Wunderground v.1.15,2013-12-22 06:37:00,
2013-12-22 01:42:00,35.1,34.1,29.98,ENE,68,0.0,0.0,96,0.00,,,0.00,Wunderground v.1.15,2013-12-22 06:42:00,
2013-12-22 01:48:00,35.0,34.0,29.98,ENE,68,0.0,0.0,96,0.00,,,0.00,Wunderground v.1.15,2013-12-22 06:48:00,
2013-12-22 01:53:00,35.1,34.1,29.98,ENE,68,0.0,0.0,96,0.00,,,0.00,Wunderground v.1.15,2013-12-22 06:53:00,
2013-12-22 01:59:00,35.1,34.1,29.98,ENE,68,0.0,0.0,96,0.00,,,0.00,Wunderground v.1.15,2013-12-22 06:59:00,
2013-12-22 02:05:00,35.0,34.0,29.97,ENE,68,0.0,0.0,96,0.00,,,0.00,Wunderground v.1.15,2013-12-22 07:05:00,
2013-12-22 02:10:00,35.1,34.1,29.97,ENE,68,0.0,0.0,96,0.00,,,0.00,Wunderground v.1.15,2013-12-22 07:10:00,
2013-12-22 02:15:00,35.2,34.2,29.98,ENE,68,0.0,0.0,96,0.00,,,0.00,Wunderground v.1.15,2013-12-22 07:15:00,
2013-12-22 02:21:00,35.3,34.3,29.98,ENE,68,0.0,0.0,96,0.00,,,0.00,Wunderground v.1.15,2013-12-22 07:21:00,
2013-12-22 02:26:00,35.3,34.3,29.98,ENE,68,0.0,0.0,96,0.00,,,0.00,Wunderground v.1.15,2013-12-22 07:26:00,
2013-12-22 02:31:00,35.2,34.2,29.98,ENE,68,0.0,0.0,96,0.00,,,0.00,Wunderground v.1.15,2013-12-22 07:31:00,
2013-12-22 02:37:00,35.4,34.4,29.98,ENE,68,0.0,0.0,96,0.00,,,0.00,Wunderground v.1.15,2013-12-22 07:37:00,
2013-12-22 02:43:00,35.4,34.6,29.98,ENE,68,0.0,0.0,97,0.00,,,0.00,Wunderground v.1.15,2013-12-22 07:43:00,
2013-12-22 02:48:00,35.5,34.7,29.97,ENE,68,0.0,0.0,97,0.00,,,0.00,Wunderground v.1.15,2013-12-22 07:48:00,
2013-12-22 02:54:00,35.5,34.7,29.97,ENE,68,0.0,0.0,97,0.00,,,0.00,Wunderground v.1.15,2013-12-22 07:54:00,
2013-12-22 03:00:00,35.5,34.7,29.97,ENE,68,0.0,0.0,97,0.00,,,0.00,Wunderground v.1.15,2013-12-22 08:00:00,
2013-12-22 03:05:00,35.5,34.7,29.97,ENE,68,0.0,0.0,97,0.00,,,0.00,Wunderground v.1.15,2013-12-22 08:05:00,
2013-12-22 03:10:00,35.6,34.8,29.96,ENE,68,0.0,0.0,97,0.00,,,0.00,Wunderground v.1.15,2013-12-22 08:10:00,
2013-12-22 03:15:00,35.6,34.8,29.95,ENE,68,0.0,0.0,97,0.00,,,0.01,Wunderground v.1.15,2013-12-22 08:15:00,
2013-12-22 03:20:00,35.7,34.9,29.95,ENE,68,0.0,0.0,97,0.00,,,0.01,Wunderground v.1.15,2013-12-22 08:20:00,
2013-12-22 03:25:00,35.7,34.9,29.95,ENE,68,0.0,0.0,97,0.00,,,0.01,Wunderground v.1.15,2013-12-22 08:25:00,
2013-12-22 03:30:00,35.7,34.9,29.95,ENE,68,0.0,0.0,97,0.00,,,0.01,Wunderground v.1.15,2013-12-22 08:30:00,
2013-12-22 03:36:00,35.7,34.9,29.94,ENE,68,0.0,0.0,97,0.00,,,0.01,Wunderground v.1.15,2013-12-22 08:36:00,
2013-12-22 03:41:00,35.7,34.9,29.94,ENE,68,0.0,0.0,97,0.00,,,0.01,Wunderground v.1.15,2013-12-22 08:41:00,
2013-12-22 03:46:00,35.6,34.8,29.93,ENE,68,0.0,0.0,97,0.00,,,0.01,Wunderground v.1.15,2013-12-22 08:46:00,
2013-12-22 03:51:00,35.6,34.8,29.92,ENE,68,0.0,0.0,97,0.00,,,0.01,Wunderground v.1.15,2013-12-22 08:51:00,
2013-12-22 03:57:00,35.5,34.7,29.94,ENE,68,0.0,0.0,97,0.00,,,0.01,Wunderground v.1.15,2013-12-22 08:57:00,
2013-12-22 04:02:00,35.7,34.9,29.94,ENE,68,0.0,0.0,97,0.00,,,0.01,Wunderground v.1.15,2013-12-22 09:02:00,
2013-12-22 04:07:00,35.7,34.9,29.93,ENE,68,0.0,0.0,97,0.00,,,0.01,Wunderground v.1.15,2013-12-22 09:07:00,
2013-12-22 04:12:00,35.7,34.9,29.92,ENE,68,0.0,0.0,97,0.00,,,0.01,Wunderground v.1.15,2013-12-22 09:12:00,
2013-12-22 04:18:00,35.7,34.9,29.93,ENE,68,0.0,0.0,97,0.00,,,0.01,Wunderground v.1.15,2013-12-22 09:18:00,
2013-12-22 04:23:00,35.7,34.9,29.92,ENE,68,0.0,0.0,97,0.00,,,0.01,Wunderground v.1.15,2013-12-22 09:23:00,
2013-12-22 04:28:00,35.6,34.8,29.91,ENE,68,0.0,0.0,97,0.00,,,0.01,Wunderground v.1.15,2013-12-22 09:28:00,
2013-12-22 04:33:00,35.7,34.9,29.91,ENE,68,0.0,0.0,97,0.00,,,0.01,Wunderground v.1.15,2013-12-22 09:33:00,
2013-12-22 04:38:00,35.7,34.9,29.91,ENE,68,0.0,0.0,97,0.00,,,0.01,Wunderground v.1.15,2013-12-22 09:38:00,
2013-12-22 04:43:00,35.7,34.9,29.92,ENE,68,0.0,0.0,97,0.00,,,0.01,Wunderground v.1.15,2013-12-22 09:43:00,
2013-12-22 04:49:00,35.9,35.1,29.92,ENE,68,0.0,0.0,97,0.00,,,0.01,Wunderground v.1.15,2013-12-22 09:49:00,
2013-12-22 04:54:00,35.7,34.9,29.93,ENE,68,0.0,1.0,97,0.00,,,0.01,Wunderground v.1.15,2013-12-22 09:54:00,
2013-12-22 05:00:00,35.5,34.7,29.92,ENE,68,0.0,0.0,97,0.00,,,0.01,Wunderground v.1.15,2013-12-22 10:00:00,
2013-12-22 05:05:00,35.7,34.9,29.92,ENE,68,0.0,0.0,97,0.00,,,0.01,Wunderground v.1.15,2013-12-22 10:05:00,
2013-12-22 05:10:00,35.8,35.0,29.92,ENE,68,0.0,0.0,97,0.00,,,0.01,Wunderground v.1.15,2013-12-22 10:10:00,
2013-12-22 05:16:00,35.9,35.1,29.92,ENE,68,0.0,0.0,97,0.00,,,0.01,Wunderground v.1.15,2013-12-22 10:16:00,
2013-12-22 05:21:00,36.0,35.2,29.91,ENE,65,0.0,0.0,97,0.00,,,0.01,Wunderground v.1.15,2013-12-22 10:21:00,
2013-12-22 05:26:00,36.2,35.4,29.91,NNE,18,0.0,1.0,97,0.00,,,0.01,Wunderground v.1.15,2013-12-22 10:26:00,
2013-12-22 05:31:00,36.5,35.7,29.91,NNE,30,0.0,0.0,97,0.00,,,0.01,Wunderground v.1.15,2013-12-22 10:31:00,
2013-12-22 05:36:00,39.2,38.7,29.91,South,173,0.0,1.0,98,0.00,,,0.01,Wunderground v.1.15,2013-12-22 10:36:00,
2013-12-22 05:42:00,43.6,43.1,29.89,SSW,193,0.0,1.0,98,0.00,,,0.01,Wunderground v.1.15,2013-12-22 10:42:00,
2013-12-22 05:47:00,46.7,46.4,29.89,East,98,0.0,2.0,99,0.00,,,0.01,Wunderground v.1.15,2013-12-22 10:47:00,
2013-12-22 05:52:00,47.1,46.8,29.89,SW,225,0.0,0.0,99,0.00,,,0.01,Wunderground v.1.15,2013-12-22 10:52:00,
2013-12-22 05:57:00,47.5,47.2,29.89,SW,225,0.0,0.0,99,0.00,,,0.01,Wunderground v.1.15,2013-12-22 10:57:00,
2013-12-22 06:02:00,47.6,47.3,29.89,East,101,0.0,0.0,99,0.00,,,0.01,Wunderground v.1.15,2013-12-22 11:02:00,
2013-12-22 06:08:00,51.0,50.7,29.90,SW,219,0.0,2.0,99,0.00,,,0.01,Wunderground v.1.15,2013-12-22 11:08:00,
2013-12-22 06:13:00,50.0,49.7,29.90,SW,219,0.0,0.0,99,0.00,,,0.01,Wunderground v.1.15,2013-12-22 11:13:00,
2013-12-22 06:18:00,49.1,48.8,29.89,SW,220,0.0,0.0,99,0.00,,,0.01,Wunderground v.1.15,2013-12-22 11:18:00,
2013-12-22 06:24:00,48.2,47.7,29.89,SW,224,0.0,2.0,98,0.00,,,0.01,Wunderground v.1.15,2013-12-22 11:24:00,
2013-12-22 06:30:00,48.9,48.6,29.90,SSE,158,0.0,0.0,99,0.00,,,0.01,Wunderground v.1.15,2013-12-22 11:30:00,
2013-12-22 06:35:00,50.3,50.0,29.90,SW,218,0.0,4.0,99,0.00,,,0.01,Wunderground v.1.15,2013-12-22 11:35:00,
2013-12-22 06:40:00,52.9,52.6,29.90,SSW,210,1.0,1.0,99,0.00,,,0.01,Wunderground v.1.15,2013-12-22 11:40:00,
2013-12-22 06:45:00,54.9,54.6,29.91,SSW,197,1.0,2.0,99,0.00,,,0.01,Wunderground v.1.15,2013-12-22 11:45:00,
2013-12-22 06:50:00,55.8,55.5,29.91,SW,222,1.0,1.0,99,0.00,,,0.01,Wunderground v.1.15,2013-12-22 11:50:00,
2013-12-22 06:55:00,56.0,55.7,29.90,SW,231,1.0,1.0,99,0.00,,,0.01,Wunderground v.1.15,2013-12-22 11:55:00,
2013-12-22 07:01:00,54.7,54.4,29.91,SE,127,0.0,0.0,99,0.00,,,0.01,Wunderground v.1.15,2013-12-22 12:01:00,
2013-12-22 07:06:00,55.6,55.3,29.91,SW,215,1.0,2.0,99,0.00,,,0.01,Wunderground v.1.15,2013-12-22 12:06:00,
2013-12-22 07:11:00,55.7,55.4,29.91,SW,228,1.0,1.0,99,0.00,,,0.01,Wunderground v.1.15,2013-12-22 12:11:00,
2013-12-22 07:16:00,55.1,54.8,29.91,SSW,198,0.0,1.0,99,0.00,,,0.01,Wunderground v.1.15,2013-12-22 12:16:00,
2013-12-22 07:21:00,55.7,55.4,29.92,SW,215,0.0,1.0,99,0.00,,,0.01,Wunderground v.1.15,2013-12-22 12:21:00,
2013-12-22 07:26:00,56.2,55.9,29.91,SW,219,1.0,3.0,99,0.00,,,0.01,Wunderground v.1.15,2013-12-22 12:26:00,
2013-12-22 07:31:00,56.7,56.4,29.92,South,188,1.0,1.0,99,0.00,,,0.01,Wunderground v.1.15,2013-12-22 12:31:00,
2013-12-22 07:36:00,56.9,56.6,29.92,WNW,293,1.0,1.0,99,0.00,,,0.01,Wunderground v.1.15,2013-12-22 12:36:00,
2013-12-22 07:42:00,57.1,56.8,29.93,SW,214,1.0,1.0,99,0.00,,,0.01,Wunderground v.1.15,2013-12-22 12:42:00,
2013-12-22 07:48:00,56.9,56.6,29.94,ESE,117,1.0,1.0,99,0.00,,,0.01,Wunderground v.1.15,2013-12-22 12:48:00,
2013-12-22 07:53:00,57.0,56.7,29.94,SW,218,1.0,2.0,99,0.00,,,0.01,Wunderground v.1.15,2013-12-22 12:53:00,
2013-12-22 07:59:00,56.6,56.3,29.94,SSW,211,0.0,2.0,99,0.00,,,0.01,Wunderground v.1.15,2013-12-22 12:59:00,
2013-12-22 08:04:00,56.2,55.9,29.93,SW,218,0.0,1.0,99,0.00,,,0.01,Wunderground v.1.15,2013-12-22 13:04:00,
2013-12-22 08:10:00,56.5,56.2,29.93,SW,224,0.0,1.0,99,0.00,,,0.01,Wunderground v.1.15,2013-12-22 13:10:00,
2013-12-22 08:15:00,56.8,56.5,29.93,WSW,240,1.0,3.0,99,0.00,,,0.01,Wunderground v.1.15,2013-12-22 13:15:00,
2013-12-22 08:21:00,57.0,56.7,29.93,SSE,159,1.0,1.0,99,0.00,,,0.01,Wunderground v.1.15,2013-12-22 13:21:00,
2013-12-22 08:26:00,56.7,56.4,29.93,SW,221,1.0,1.0,99,0.00,,,0.01,Wunderground v.1.15,2013-12-22 13:26:00,
2013-12-22 08:31:00,56.6,56.3,29.93,SSW,205,0.0,2.0,99,0.00,,,0.01,Wunderground v.1.15,2013-12-22 13:31:00,
2013-12-22 08:36:00,56.8,56.5,29.93,South,174,0.0,2.0,99,0.00,,,0.01,Wunderground v.1.15,2013-12-22 13:36:00,
2013-12-22 08:42:00,57.1,56.8,29.93,SW,225,1.0,2.0,99,0.00,,,0.01,Wunderground v.1.15,2013-12-22 13:42:00,
2013-12-22 08:47:00,57.4,57.1,29.93,East,84,1.0,2.0,99,0.00,,,0.01,Wunderground v.1.15,2013-12-22 13:47:00,
2013-12-22 08:52:00,57.5,57.2,29.93,SW,226,1.0,3.0,99,0.00,,,0.01,Wunderground v.1.15,2013-12-22 13:52:00,
2013-12-22 08:57:00,57.6,57.3,29.94,SW,214,1.0,3.0,99,0.00,,,0.01,Wunderground v.1.15,2013-12-22 13:57:00,
2013-12-22 09:02:00,57.7,57.4,29.94,WSW,241,1.0,3.0,99,0.00,,,0.01,Wunderground v.1.15,2013-12-22 14:02:00,
2013-12-22 09:07:00,58.0,57.7,29.94,SSW,211,1.0,4.0,99,0.00,,,0.01,Wunderground v.1.15,2013-12-22 14:07:00,
2013-12-22 09:13:00,58.3,58.0,29.94,SSE,166,2.0,3.0,99,0.00,,,0.01,Wunderground v.1.15,2013-12-22 14:13:00,
2013-12-22 09:19:00,58.2,57.9,29.94,SW,224,2.0,3.0,99,0.00,,,0.01,Wunderground v.1.15,2013-12-22 14:19:00,
2013-12-22 09:25:00,58.5,58.2,29.94,SW,221,1.0,4.0,99,0.00,,,0.01,Wunderground v.1.15,2013-12-22 14:25:00,
2013-12-22 09:31:00,58.5,58.2,29.94,SSW,198,2.0,2.0,99,0.00,,,0.01,Wunderground v.1.15,2013-12-22 14:31:00,
2013-12-22 09:36:00,58.8,58.5,29.95,South,186,2.0,4.0,99,0.00,,,0.01,Wunderground v.1.15,2013-12-22 14:36:00,
2013-12-22 09:42:00,59.0,58.7,29.95,SSW,212,2.0,2.0,99,0.00,,,0.01,Wunderground v.1.15,2013-12-22 14:42:00,
2013-12-22 09:48:00,59.3,58.7,29.95,SSW,210,2.0,2.0,98,0.00,,,0.01,Wunderground v.1.15,2013-12-22 14:48:00,
2013-12-22 09:53:00,59.8,58.4,29.96,SSE,166,2.0,4.0,95,0.00,,,0.01,Wunderground v.1.15,2013-12-22 14:53:00,
2013-12-22 09:59:00,59.9,58.2,29.96,SSW,211,2.0,4.0,94,0.00,,,0.01,Wunderground v.1.15,2013-12-22 14:59:00,
2013-12-22 10:04:00,60.1,58.7,29.97,SW,229,1.0,3.0,95,0.00,,,0.01,Wunderground v.1.15,2013-12-22 15:04:00,
2013-12-22 10:09:00,60.1,58.4,29.97,SW,224,2.0,3.0,94,0.00,,,0.01,Wunderground v.1.15,2013-12-22 15:09:00,
2013-12-22 10:14:00,60.3,58.6,29.97,SSW,206,1.0,2.0,94,0.00,,,0.01,Wunderground v.1.15,2013-12-22 15:14:00,
2013-12-22 10:19:00,60.4,58.7,29.97,ESE,117,1.0,3.0,94,0.00,,,0.01,Wunderground v.1.15,2013-12-22 15:19:00,
2013-12-22 10:24:00,60.7,59.0,29.97,SW,215,1.0,2.0,94,0.00,,,0.01,Wunderground v.1.15,2013-12-22 15:24:00,
2013-12-22 10:29:00,60.9,58.9,29.96,East,79,2.0,4.0,93,0.00,,,0.01,Wunderground v.1.15,2013-12-22 15:29:00,
2013-12-22 10:34:00,61.1,59.1,29.96,SSW,201,2.0,4.0,93,0.00,,,0.01,Wunderground v.1.15,2013-12-22 15:34:00,
2013-12-22 10:40:00,61.4,59.1,29.96,SW,222,1.0,2.0,92,0.00,,,0.01,Wunderground v.1.15,2013-12-22 15:40:00,
2013-12-22 10:45:00,61.8,59.5,29.96,SSW,194,1.0,2.0,92,0.00,,,0.01,Wunderground v.1.15,2013-12-22 15:45:00,
2013-12-22 10:50:00,61.9,59.2,29.97,SSW,197,2.0,2.0,91,0.00,,,0.01,Wunderground v.1.15,2013-12-22 15:50:00,
2013-12-22 10:55:00,61.8,59.1,29.97,SSW,212,1.0,2.0,91,0.00,,,0.01,Wunderground v.1.15,2013-12-22 15:55:00,
2013-12-22 11:01:00,61.8,59.1,29.97,SW,229,1.0,1.0,91,0.00,,,0.01,Wunderground v.1.15,2013-12-22 16:01:00,
2013-12-22 11:06:00,61.9,59.2,29.97,SSW,207,1.0,4.0,91,0.00,,,0.01,Wunderground v.1.15,2013-12-22 16:06:00,
2013-12-22 11:11:00,62.0,59.3,29.97,SSW,212,1.0,1.0,91,0.00,,,0.01,Wunderground v.1.15,2013-12-22 16:11:00,
2013-12-22 11:16:00,62.0,59.6,29.97,SE,146,2.0,2.0,92,0.00,,,0.01,Wunderground v.1.15,2013-12-22 16:16:00,
2013-12-22 11:22:00,62.1,59.7,29.97,SE,141,1.0,4.0,92,0.00,,,0.01,Wunderground v.1.15,2013-12-22 16:22:00,
2013-12-22 11:27:00,62.3,59.6,29.96,SE,142,2.0,4.0,91,0.00,,,0.01,Wunderground v.1.15,2013-12-22 16:27:00,
2013-12-22 11:32:00,62.4,59.7,29.97,ESE,107,1.0,1.0,91,0.00,,,0.01,Wunderground v.1.15,2013-12-22 16:32:00,
2013-12-22 11:37:00,62.3,59.3,29.97,SW,219,0.0,2.0,90,0.00,,,0.01,Wunderground v.1.15,2013-12-22 16:37:00,
2013-12-22 11:42:00,62.5,59.8,29.96,SE,139,0.0,4.0,91,0.00,,,0.01,Wunderground v.1.15,2013-12-22 16:42:00,
2013-12-22 11:47:00,62.8,60.1,29.96,SSW,211,1.0,4.0,91,0.00,,,0.01,Wunderground v.1.15,2013-12-22 16:47:00,
2013-12-22 11:52:00,63.2,59.9,29.96,SE,132,0.0,0.0,89,0.00,,,0.01,Wunderground v.1.15,2013-12-22 16:52:00,
2013-12-22 11:57:00,63.3,60.3,29.96,SSW,210,0.0,2.0,90,0.00,,,0.01,Wunderground v.1.15,2013-12-22 16:57:00,
2013-12-22 12:02:00,63.4,60.1,29.96,SW,222,0.0,0.0,89,0.00,,,0.01,Wunderground v.1.15,2013-12-22 17:02:00,
2013-12-22 12:07:00,63.4,60.1,29.96,SW,218,0.0,2.0,89,0.00,,,0.01,Wunderground v.1.15,2013-12-22 17:07:00,
2013-12-22 12:13:00,63.5,60.2,29.95,SW,231,1.0,2.0,89,0.00,,,0.01,Wunderground v.1.15,2013-12-22 17:13:00,
2013-12-22 12:18:00,63.5,60.2,29.95,SE,133,1.0,4.0,89,0.00,,,0.01,Wunderground v.1.15,2013-12-22 17:18:00,
2013-12-22 12:23:00,63.6,60.0,29.95,SSW,211,1.0,3.0,88,0.00,,,0.01,Wunderground v.1.15,2013-12-22 17:23:00,
2013-12-22 12:29:00,63.4,59.8,29.95,SSE,159,0.0,3.0,88,0.00,,,0.01,Wunderground v.1.15,2013-12-22 17:29:00,
2013-12-22 12:34:00,63.0,59.7,29.95,SSW,203,0.0,0.0,89,0.00,,,0.01,Wunderground v.1.15,2013-12-22 17:34:00,
2013-12-22 12:39:00,62.8,59.8,29.94,SW,216,1.0,1.0,90,0.00,,,0.01,Wunderground v.1.15,2013-12-22 17:39:00,
2013-12-22 12:45:00,62.9,59.9,29.94,WSW,249,1.0,3.0,90,0.00,,,0.01,Wunderground v.1.15,2013-12-22 17:45:00,
2013-12-22 12:50:00,63.0,59.7,29.95,SSW,212,1.0,1.0,89,0.00,,,0.01,Wunderground v.1.15,2013-12-22 17:50:00,
2013-12-22 12:56:00,63.1,59.8,29.95,South,188,0.0,1.0,89,0.00,,,0.01,Wunderground v.1.15,2013-12-22 17:56:00,
2013-12-22 13:01:00,63.1,59.8,29.95,SW,218,0.0,1.0,89,0.00,,,0.01,Wunderground v.1.15,2013-12-22 18:01:00,
2013-12-22 13:06:00,63.3,60.0,29.94,SSW,211,0.0,4.0,89,0.00,,,0.01,Wunderground v.1.15,2013-12-22 18:06:00,
2013-12-22 13:11:00,63.3,59.7,29.93,SSW,204,1.0,1.0,88,0.00,,,0.01,Wunderground v.1.15,2013-12-22 18:11:00,
2013-12-22 13:16:00,63.1,59.5,29.93,SW,225,0.0,1.0,88,0.00,,,0.01,Wunderground v.1.15,2013-12-22 18:16:00,
2013-12-22 13:21:00,62.7,59.4,29.94,SW,229,0.0,2.0,89,0.00,,,0.01,Wunderground v.1.15,2013-12-22 18:21:00,
2013-12-22 13:26:00,62.6,59.3,29.94,SSW,201,1.0,2.0,89,0.00,,,0.01,Wunderground v.1.15,2013-12-22 18:26:00,
2013-12-22 13:32:00,62.9,59.6,29.94,SW,221,1.0,1.0,89,0.00,,,0.01,Wunderground v.1.15,2013-12-22 18:32:00,
2013-12-22 13:37:00,63.2,59.6,29.94,WSW,252,1.0,1.0,88,0.00,,,0.01,Wunderground v.1.15,2013-12-22 18:37:00,
2013-12-22 13:42:00,63.2,59.9,29.93,SW,231,0.0,3.0,89,0.00,,,0.01,Wunderground v.1.15,2013-12-22 18:42:00,
2013-12-22 13:47:00,63.4,59.8,29.92,SW,218,0.0,3.0,88,0.00,,,0.01,Wunderground v.1.15,2013-12-22 18:47:00,
2013-12-22 13:52:00,63.4,59.5,29.92,SW,228,0.0,0.0,87,0.00,,,0.01,Wunderground v.1.15,2013-12-22 18:52:00,
2013-12-22 13:57:00,63.4,59.5,29.92,South,183,0.0,2.0,87,0.00,,,0.01,Wunderground v.1.15,2013-12-22 18:57:00,
2013-12-22 14:03:00,63.7,59.8,29.92,SW,236,1.0,4.0,87,0.00,,,0.01,Wunderground v.1.15,2013-12-22 19:03:00,
2013-12-22 14:08:00,63.7,59.4,29.92,SW,226,1.0,4.0,86,0.00,,,0.01,Wunderground v.1.15,2013-12-22 19:08:00,
2013-12-22 14:13:00,63.8,59.2,29.91,SW,219,1.0,2.0,85,0.00,,,0.01,Wunderground v.1.15,2013-12-22 19:13:00,
2013-12-22 14:19:00,63.7,59.1,29.92,SW,228,1.0,5.0,85,0.00,,,0.01,Wunderground v.1.15,2013-12-22 19:19:00,
2013-12-22 14:25:00,63.2,58.6,29.92,WSW,240,0.0,1.0,85,0.00,,,0.01,Wunderground v.1.15,2013-12-22 19:25:00,
2013-12-22 14:30:00,62.5,58.3,29.92,SW,222,0.0,0.0,86,0.00,,,0.01,Wunderground v.1.15,2013-12-22 19:30:00,
2013-12-22 14:35:00,62.1,58.2,29.91,SW,223,0.0,0.0,87,0.00,,,0.01,Wunderground v.1.15,2013-12-22 19:35:00,
2013-12-22 14:40:00,61.6,57.4,29.89,SW,222,0.0,0.0,86,0.00,,,0.01,Wunderground v.1.15,2013-12-22 19:40:00,
2013-12-22 14:45:00,60.9,57.0,29.89,SW,221,0.0,1.0,87,0.00,,,0.01,Wunderground v.1.15,2013-12-22 19:45:00,
2013-12-22 14:50:00,60.5,57.2,29.89,SSW,201,0.0,0.0,89,0.00,,,0.01,Wunderground v.1.15,2013-12-22 19:50:00,
2013-12-22 14:55:00,60.1,56.8,29.89,SW,218,0.0,2.0,89,0.00,,,0.01,Wunderground v.1.15,2013-12-22 19:55:00,
2013-12-22 15:01:00,59.7,56.8,29.89,SW,235,0.0,0.0,90,0.00,,,0.01,Wunderground v.1.15,2013-12-22 20:01:00,
2013-12-22 15:06:00,59.3,56.4,29.88,SSW,198,0.0,0.0,90,0.00,,,0.01,Wunderground v.1.15,2013-12-22 20:06:00,
2013-12-22 15:11:00,59.0,56.4,29.89,SSW,212,0.0,1.0,91,0.00,,,0.01,Wunderground v.1.15,2013-12-22 20:11:00,
2013-12-22 15:16:00,58.8,56.2,29.88,SSW,211,0.0,1.0,91,0.00,,,0.01,Wunderground v.1.15,2013-12-22 20:16:00,
2013-12-22 15:21:00,58.4,55.8,29.87,SE,144,0.0,0.0,91,0.00,,,0.01,Wunderground v.1.15,2013-12-22 20:21:00,
2013-12-22 15:26:00,58.3,56.0,29.87,SSW,211,0.0,0.0,92,0.00,,,0.01,Wunderground v.1.15,2013-12-22 20:26:00,
2013-12-22 15:32:00,58.0,55.4,29.86,SE,125,0.0,0.0,91,0.00,,,0.01,Wunderground v.1.15,2013-12-22 20:32:00,
2013-12-22 15:37:00,57.5,55.2,29.86,SE,127,0.0,0.0,92,0.00,,,0.01,Wunderground v.1.15,2013-12-22 20:37:00,
2013-12-22 15:43:00,57.3,55.3,29.87,SSW,204,0.0,1.0,93,0.00,,,0.01,Wunderground v.1.15,2013-12-22 20:43:00,
2013-12-22 15:48:00,57.5,55.5,29.87,SSW,201,0.0,1.0,93,0.00,,,0.01,Wunderground v.1.15,2013-12-22 20:48:00,
2013-12-22 15:53:00,57.6,55.3,29.88,SW,225,0.0,0.0,92,0.00,,,0.01,Wunderground v.1.15,2013-12-22 20:53:00,
2013-12-22 15:58:00,58.5,55.9,29.89,SSE,155,1.0,3.0,91,0.00,,,0.01,Wunderground v.1.15,2013-12-22 20:58:00,
2013-12-22 16:03:00,60.0,56.1,29.91,SSW,208,2.0,2.0,87,0.00,,,0.01,Wunderground v.1.15,2013-12-22 21:03:00,
2013-12-22 16:08:00,60.8,56.3,29.92,South,184,2.0,4.0,85,0.00,,,0.01,Wunderground v.1.15,2013-12-22 21:08:00,
2013-12-22 16:13:00,61.0,56.1,29.92,SSW,201,3.0,3.0,84,0.00,,,0.01,Wunderground v.1.15,2013-12-22 21:13:00,
2013-12-22 16:18:00,61.0,56.1,29.93,SSE,162,2.0,3.0,84,0.00,,,0.01,Wunderground v.1.15,2013-12-22 21:18:00,
2013-12-22 16:23:00,60.9,56.0,29.94,ESE,122,1.0,2.0,84,0.00,,,0.01,Wunderground v.1.15,2013-12-22 21:23:00,
2013-12-22 16:28:00,60.8,55.9,29.94,East,88,1.0,2.0,84,0.00,,,0.01,Wunderground v.1.15,2013-12-22 21:28:00,
2013-12-22 16:34:00,60.8,55.9,29.94,SSW,208,1.0,1.0,84,0.00,,,0.01,Wunderground v.1.15,2013-12-22 21:34:00,
2013-12-22 16:37:00,60.8,55.9,29.93,SW,226,0.0,1.0,84,0.00,,,0.01,Wunderground v.1.15,2013-12-22 21:37:00,
2013-12-22 16:42:00,60.5,56.0,29.94,SW,226,0.0,0.0,85,0.00,,,0.01,Wunderground v.1.15,2013-12-22 21:42:00,
2013-12-22 16:47:00,60.2,55.7,29.94,SW,218,0.0,2.0,85,0.00,,,0.01,Wunderground v.1.15,2013-12-22 21:47:00,
2013-12-22 16:52:00,60.1,55.6,29.96,SSW,207,0.0,1.0,85,0.00,,,0.01,Wunderground v.1.15,2013-12-22 21:52:00,
2013-12-22 16:57:00,60.3,55.8,29.96,SSW,207,1.0,2.0,85,0.00,,,0.01,Wunderground v.1.15,2013-12-22 21:57:00,
2013-12-22 17:02:00,60.9,55.7,29.96,SSW,208,1.0,4.0,83,0.00,,,0.01,Wunderground v.1.15,2013-12-22 22:02:00,
2013-12-22 17:07:00,61.4,55.9,29.96,South,176,1.0,4.0,82,0.00,,,0.01,Wunderground v.1.15,2013-12-22 22:07:00,
2013-12-22 17:12:00,61.5,56.0,29.95,ESE,115,1.0,1.0,82,0.00,,,0.01,Wunderground v.1.15,2013-12-22 22:12:00,
2013-12-22 17:17:00,61.2,55.7,29.96,SE,133,0.0,1.0,82,0.00,,,0.01,Wunderground v.1.15,2013-12-22 22:17:00,
2013-12-22 17:22:00,61.1,55.9,29.97,SW,220,0.0,3.0,83,0.00,,,0.01,Wunderground v.1.15,2013-12-22 22:22:00,
2013-12-22 17:28:00,61.0,55.8,29.97,SSE,162,1.0,3.0,83,0.00,,,0.01,Wunderground v.1.15,2013-12-22 22:28:00,
2013-12-22 17:33:00,60.9,55.7,29.98,SW,216,0.0,1.0,83,0.00,,,0.01,Wunderground v.1.15,2013-12-22 22:33:00,
2013-12-22 17:38:00,60.9,55.7,29.96,SE,146,0.0,2.0,83,0.00,,,0.01,Wunderground v.1.15,2013-12-22 22:38:00,
2013-12-22 17:43:00,60.6,55.4,29.97,SW,221,0.0,1.0,83,0.00,,,0.01,Wunderground v.1.15,2013-12-22 22:43:00,
2013-12-22 17:48:00,59.9,54.7,29.97,SW,224,0.0,1.0,83,0.00,,,0.01,Wunderground v.1.15,2013-12-22 22:48:00,
2013-12-22 17:53:00,59.2,54.7,29.97,SW,224,0.0,0.0,85,0.00,,,0.01,Wunderground v.1.15,2013-12-22 22:53:00,
2013-12-22 17:58:00,59.2,55.3,29.97,SE,143,0.0,0.0,87,0.00,,,0.01,Wunderground v.1.15,2013-12-22 22:58:00,
2013-12-22 18:03:00,59.5,55.3,29.98,ESE,110,0.0,0.0,86,0.00,,,0.01,Wunderground v.1.15,2013-12-22 23:03:00,
2013-12-22 18:08:00,59.6,55.4,29.99,SSW,208,0.0,2.0,86,0.00,,,0.01,Wunderground v.1.15,2013-12-22 23:08:00,
2013-12-22 18:13:00,60.1,55.6,29.99,SSE,150,1.0,2.0,85,0.00,,,0.01,Wunderground v.1.15,2013-12-22 23:13:00,
2013-12-22 18:18:00,60.5,55.6,29.99,East,98,1.0,2.0,84,0.00,,,0.01,Wunderground v.1.15,2013-12-22 23:18:00,
2013-12-22 18:24:00,60.5,55.6,29.98,WSW,240,1.0,1.0,84,0.00,,,0.01,Wunderground v.1.15,2013-12-22 23:24:00,
2013-12-22 18:29:00,60.4,55.5,29.97,WSW,245,0.0,1.0,84,0.00,,,0.01,Wunderground v.1.15,2013-12-22 23:29:00,
2013-12-22 18:34:00,60.4,55.5,29.97,SW,220,0.0,1.0,84,0.00,,,0.01,Wunderground v.1.15,2013-12-22 23:34:00,
2013-12-22 18:39:00,60.5,55.3,29.98,SW,221,1.0,2.0,83,0.00,,,0.01,Wunderground v.1.15,2013-12-22 23:39:00,
2013-12-22 18:45:00,60.3,55.1,29.97,SSW,207,0.0,1.0,83,0.00,,,0.01,Wunderground v.1.15,2013-12-22 23:45:00,
2013-12-22 18:50:00,59.7,54.9,29.98,SW,214,0.0,0.0,84,0.00,,,0.01,Wunderground v.1.15,2013-12-22 23:50:00,
2013-12-22 18:55:00,59.0,54.5,29.99,SW,226,0.0,1.0,85,0.00,,,0.01,Wunderground v.1.15,2013-12-22 23:55:00,
2013-12-22 19:00:00,58.0,53.2,29.99,SW,226,0.0,0.0,84,0.00,,,0.01,Wunderground v.1.15,2013-12-23 00:00:00,
2013-12-22 19:06:00,56.8,53.0,29.99,SW,226,0.0,0.0,87,0.00,,,0.01,Wunderground v.1.15,2013-12-23 00:06:00,
2013-12-22 19:11:00,56.5,53.6,29.99,ESE,113,0.0,0.0,90,0.00,,,0.01,Wunderground v.1.15,2013-12-23 00:11:00,
2013-12-22 19:16:00,56.5,53.6,29.99,SW,220,0.0,0.0,90,0.00,,,0.01,Wunderground v.1.15,2013-12-23 00:16:00,
2013-12-22 19:21:00,57.1,54.2,30.00,SW,214,0.0,1.0,90,0.00,,,0.01,Wunderground v.1.15,2013-12-23 00:21:00,
2013-12-22 19:27:00,57.8,54.6,30.00,SW,220,0.0,2.0,89,0.00,,,0.01,Wunderground v.1.15,2013-12-23 00:27:00,
2013-12-22 19:32:00,58.0,54.5,30.00,SSW,203,0.0,1.0,88,0.00,,,0.01,Wunderground v.1.15,2013-12-23 00:32:00,
2013-12-22 19:38:00,58.1,53.0,30.00,SW,229,0.0,1.0,83,0.00,,,0.01,Wunderground v.1.15,2013-12-23 00:38:00,
2013-12-22 19:43:00,55.9,50.8,30.00,SW,229,0.0,0.0,83,0.00,,,0.01,Wunderground v.1.15,2013-12-23 00:43:00,
2013-12-22 19:48:00,53.7,49.3,30.00,SW,229,0.0,0.0,85,0.00,,,0.01,Wunderground v.1.15,2013-12-23 00:48:00,
2013-12-22 19:53:00,52.4,48.3,30.00,SW,229,0.0,0.0,86,0.00,,,0.01,Wunderground v.1.15,2013-12-23 00:53:00,
2013-12-22 19:58:00,51.3,47.9,30.00,SW,229,0.0,0.0,88,0.00,,,0.01,Wunderground v.1.15,2013-12-23 00:58:00,
2013-12-22 20:03:00,50.6,47.5,30.00,SW,229,0.0,0.0,89,0.00,,,0.01,Wunderground v.1.15,2013-12-23 01:03:00,
2013-12-22 20:09:00,49.8,46.4,30.00,SW,229,0.0,0.0,88,0.00,,,0.01,Wunderground v.1.15,2013-12-23 01:09:00,
2013-12-22 20:14:00,49.1,46.0,30.01,SW,229,0.0,0.0,89,0.00,,,0.01,Wunderground v.1.15,2013-12-23 01:14:00,
2013-12-22 20:19:00,48.2,45.1,30.01,SW,229,0.0,0.0,89,0.00,,,0.01,Wunderground v.1.15,2013-12-23 01:19:00,
2013-12-22 20:24:00,47.5,45.0,30.00,SW,229,0.0,0.0,91,0.00,,,0.01,Wunderground v.1.15,2013-12-23 01:24:00,
2013-12-22 20:29:00,47.1,45.2,30.01,SW,229,0.0,0.0,93,0.00,,,0.01,Wunderground v.1.15,2013-12-23 01:29:00,
2013-12-22 20:34:00,46.9,45.0,30.01,SW,229,0.0,0.0,93,0.00,,,0.01,Wunderground v.1.15,2013-12-23 01:34:00,
2013-12-22 20:39:00,46.4,44.5,30.00,SW,229,0.0,0.0,93,0.00,,,0.01,Wunderground v.1.15,2013-12-23 01:39:00,
2013-12-22 20:44:00,46.1,44.5,30.02,SW,229,0.0,0.0,94,0.00,,,0.01,Wunderground v.1.15,2013-12-23 01:44:00,
2013-12-22 20:49:00,46.0,44.4,30.02,SW,229,0.0,0.0,94,0.00,,,0.01,Wunderground v.1.15,2013-12-23 01:49:00,
2013-12-22 20:54:00,46.0,44.6,30.02,SW,229,0.0,0.0,95,0.00,,,0.01,Wunderground v.1.15,2013-12-23 01:54:00,
2013-12-22 21:00:00,46.0,44.4,30.02,SW,229,0.0,0.0,94,0.00,,,0.01,Wunderground v.1.15,2013-12-23 02:00:00,
2013-12-22 21:05:00,45.9,44.5,30.02,North,360,0.0,0.0,95,0.00,,,0.01,Wunderground v.1.15,2013-12-23 02:05:00,
2013-12-22 21:10:00,45.7,44.4,30.02,North,360,0.0,0.0,95,0.00,,,0.01,Wunderground v.1.15,2013-12-23 02:10:00,
2013-12-22 21:15:00,45.9,44.8,30.03,North,360,0.0,0.0,96,0.00,,,0.01,Wunderground v.1.15,2013-12-23 02:15:00,
2013-12-22 21:20:00,45.7,44.4,30.03,North,360,0.0,0.0,95,0.00,,,0.01,Wunderground v.1.15,2013-12-23 02:20:00,
2013-12-22 21:25:00,45.7,44.4,30.03,North,360,0.0,0.0,95,0.00,,,0.01,Wunderground v.1.15,2013-12-23 02:25:00,
2013-12-22 21:30:00,45.7,44.6,30.03,North,360,0.0,0.0,96,0.00,,,0.01,Wunderground v.1.15,2013-12-23 02:30:00,
2013-12-22 21:35:00,45.7,44.6,30.03,North,360,0.0,0.0,96,0.00,,,0.01,Wunderground v.1.15,2013-12-23 02:35:00,
2013-12-22 21:40:00,45.7,44.6,30.03,North,359,0.0,0.0,96,0.00,,,0.01,Wunderground v.1.15,2013-12-23 02:40:00,
2013-12-22 21:46:00,45.7,44.6,30.04,North,360,0.0,0.0,96,0.00,,,0.01,Wunderground v.1.15,2013-12-23 02:46:00,
2013-12-22 21:52:00,45.3,44.0,30.03,North,360,0.0,0.0,95,0.00,,,0.01,Wunderground v.1.15,2013-12-23 02:52:00,
2013-12-22 21:57:00,45.2,44.1,30.02,North,360,0.0,0.0,96,0.00,,,0.01,Wunderground v.1.15,2013-12-23 02:57:00,
2013-12-22 22:02:00,45.1,44.0,30.03,North,359,0.0,0.0,96,0.00,,,0.01,Wunderground v.1.15,2013-12-23 03:02:00,
2013-12-22 22:08:00,45.0,43.9,30.04,North,359,0.0,0.0,96,0.00,,,0.01,Wunderground v.1.15,2013-12-23 03:08:00,
2013-12-22 22:13:00,44.9,43.8,30.03,North,359,0.0,0.0,96,0.00,,,0.01,Wunderground v.1.15,2013-12-23 03:13:00,
2013-12-22 22:18:00,45.0,43.9,30.03,North,360,0.0,0.0,96,0.00,,,0.01,Wunderground v.1.15,2013-12-23 03:18:00,
2013-12-22 22:23:00,44.8,43.7,30.03,North,360,0.0,0.0,96,0.00,,,0.01,Wunderground v.1.15,2013-12-23 03:23:00,
2013-12-22 22:28:00,44.7,43.6,30.04,North,359,0.0,0.0,96,0.00,,,0.01,Wunderground v.1.15,2013-12-23 03:28:00,
2013-12-22 22:33:00,44.8,43.7,30.04,North,360,0.0,0.0,96,0.00,,,0.01,Wunderground v.1.15,2013-12-23 03:33:00,
2013-12-22 22:38:00,44.8,43.7,30.04,North,359,0.0,0.0,96,0.00,,,0.01,Wunderground v.1.15,2013-12-23 03:38:00,
2013-12-22 22:43:00,44.7,43.6,30.05,North,359,0.0,0.0,96,0.00,,,0.01,Wunderground v.1.15,2013-12-23 03:43:00,
2013-12-22 22:49:00,44.5,43.4,30.05,North,359,0.0,0.0,96,0.00,,,0.01,Wunderground v.1.15,2013-12-23 03:49:00,
2013-12-22 22:54:00,44.5,43.4,30.04,North,360,0.0,0.0,96,0.00,,,0.01,Wunderground v.1.15,2013-12-23 03:54:00,
2013-12-22 22:59:00,44.4,43.3,30.03,North,360,0.0,0.0,96,0.00,,,0.01,Wunderground v.1.15,2013-12-23 03:59:00,
2013-12-22 23:04:00,44.3,43.2,30.03,North,360,0.0,0.0,96,0.00,,,0.01,Wunderground v.1.15,2013-12-23 04:04:00,
2013-12-22 23:10:00,44.3,43.5,30.03,North,360,0.0,0.0,97,0.00,,,0.01,Wunderground v.1.15,2013-12-23 04:10:00,
2013-12-22 23:16:00,44.3,43.5,30.04,North,360,0.0,0.0,97,0.00,,,0.01,Wunderground v.1.15,2013-12-23 04:16:00,
2013-12-22 23:21:00,44.0,42.9,30.05,North,360,0.0,0.0,96,0.00,,,0.01,Wunderground v.1.15,2013-12-23 04:21:00,
2013-12-22 23:26:00,43.7,42.6,30.04,North,360,0.0,0.0,96,0.00,,,0.01,Wunderground v.1.15,2013-12-23 04:26:00,
2013-12-22 23:31:00,43.7,42.6,30.03,North,360,0.0,0.0,96,0.00,,,0.01,Wunderground v.1.15,2013-12-23 04:31:00,
2013-12-22 23:36:00,43.5,42.4,30.03,North,359,0.0,0.0,96,0.00,,,0.01,Wunderground v.1.15,2013-12-23 04:36:00,
2013-12-22 23:41:00,43.5,42.7,30.03,North,360,0.0,0.0,97,0.00,,,0.01,Wunderground v.1.15,2013-12-23 04:41:00,
2013-12-22 23:46:00,43.6,42.8,30.03,North,359,0.0,0.0,97,0.00,,,0.01,Wunderground v.1.15,2013-12-23 04:46:00,
2013-12-22 23:51:00,43.3,42.2,30.03,North,360,0.0,0.0,96,0.00,,,0.01,Wunderground v.1.15,2013-12-23 04:51:00,
2013-12-22 23:56:00,43.2,42.1,30.03,North,360,0.0,0.0,96,0.00,,,0.01,Wunderground v.1.15,2013-12-23 04:56:00,